PROFILE

 METAR AND TAF INFORMATION
ADDS - METARS form results

(0932 UTC 18 May 2022)
http://aviationweather.gov/metar/data/
 
LFPG 180930Z 06007KT 360V090 CAVOK 22/15 Q1022 NOSIG
LFPG 180900Z 04006KT 010V090 CAVOK 22/14 Q1022 NOSIG
TAF LFPG 180500Z 1806/1912 34006KT CAVOK TX29/1815Z TN17/1806Z BECMG 1807/1809 05010KT PROB30 TEMPO 1822/1904 4000 -TSRA SCT040CB BECMG 1823/1901 13010KT BECMG 1906/1908 28010KT PROB40 TEMPO 1910/1912 28015G25KT 4000 -TSRA SCT035CB 

 AIRPORT MAP

 RUNWAY INFORMATION
Runway 08R Runway length 8858 ft Runway width 197 ft
Runway elevation 336 ft Runway displaced threshold 0 ft Runway heading 85
Runway 26L Runway length 8858 ft Runway width 197 ft
Runway elevation 316 ft Runway displaced threshold 0 ft Runway heading 265
Runway 08L Runway length 13829 ft Runway width 148 ft
Runway elevation 338 ft Runway displaced threshold 0 ft Runway heading 85
Runway 26R Runway length 13829 ft Runway width 148 ft
Runway elevation 318 ft Runway displaced threshold 1969 ft Runway heading 265
Runway 09R Runway length 13780 ft Runway width 148 ft
Runway elevation 370 ft Runway displaced threshold 0 ft Runway heading 86
Runway 27L Runway length 13780 ft Runway width 148 ft
Runway elevation 387 ft Runway displaced threshold 1969 ft Runway heading 266
Runway 09L Runway length 8858 ft Runway width 197 ft
Runway elevation 378 ft Runway displaced threshold 0 ft Runway heading 85
Runway 27R Runway length 8858 ft Runway width 197 ft
Runway elevation 392 ft Runway displaced threshold 0 ft Runway heading 265

 AIRPORT FREQUENCIES
Type APP Name DE GAULLE Frequency 121.15 MHZ
Type APP Name DE GAULLE Frequency 136.275 MHZ
Type ATIS Name DE GAULLE Frequency 127.125 MHZ
Type DEP Name DE GAULLE Frequency 124.35 MHZ
Type GND Name DE GAULLE Frequency 121.6 MHZ
Type GND Name DE GAULLE Frequency 118.1 MHZ
Type PFLT Name DE GAULLE Frequency 126.65 MHZ
Type TWR Name DE GAULLE Frequency 119.25 MHZ
Type TWR Name DE GAULLE Frequency 120.65 MHZ

 AIRPORT NEAR NAVIGATION AIDS
Type VOR-DME Name Charles de Gaulle Frequency 115350 KHZ
Type VOR-DME Name Charles de Gaulle Frequency 117050 KHZ